Location: Stara Lesna
(49.1528°N, 20.2911°E)
Time: 03:31:08
(UTC+02:00)

Nimbus 7 Rocket - Pass Details

Date: 13 July 2020
Orbit: 922 x 965 km, 99.4° (Epoch: 11 August)

Event Time Altitude Azimuth Distance (km) Brightness Sun altitude
Rises 00:16:00 0° 14° (NNE) 3,607 8.7 -18.8°
Reaches altitude 10° 00:18:26 10° 14° (NNE) 2,653 7.8 -18.8°
Maximum altitude 00:24:22 80° 289° (WNW) 948 4.4 -18.9°
Enters shadow 00:27:38 28° 206° (SSW) 1,668 5.2 -19.0°
